Location: ??????
(55.8274°N, 37.9338°E)
Time: 12:25:13
(UTC+00:00)

MSX - Pass Details

Date: 14 April 2024
Orbit: 894 x 905 km, 99.0° (Epoch: 18 May)

Event Time Altitude Azimuth Distance (km) Brightness Sun altitude
Rises 00:19:05 0° 15° (NNE) 3,547 8.1 -15.7°
Reaches altitude 10° 00:21:32 10° 12° (NNE) 2,601 7.1 -15.5°
Maximum altitude 00:27:13 58° 295° (WNW) 1,050 4.1 -14.9°
Enters shadow 00:31:01 21° 223° (SW) 1,911 4.9 -14.5°
